Weather History for Cairo, IL

Change the Weather History Date:

Sunday, February 3, 2013

  Actual Average Record
Temperature  
Mean Temperature 38 °F -  
Max Temperature 46 °F 41 °F 66 °F (1962)
Min Temperature 30 °F 27 °F 3 °F (1985)
Degree Days  
Heating Degree Days 27    
Moisture  
Dew Point 27 °F    
Average Humidity 65    
Maximum Humidity 87    
Minimum Humidity 37    
Precipitation  
Precipitation 0.00 in - - ()
Sea Level Pressure  
Sea Level Pressure 30.12 in    
Wind  
Wind Speed 6 mph (WNW)    
Max Wind Speed 15 mph    
Max Gust Speed 22 mph    
Visibility 10 miles    
Events      
Averages and records for this station are not official NWS values.
T = Trace of Precipitation, MM = Missing Value Source: NWS Daily Summary

Daily Weather History Graph

Daily Weather History Graph

Search for Another Location

Airport:

Trip Planner

Search our weather history database for the weather conditions in past years. The results will help you decide how hot, cold, wet, or windy it might be!

Date:

Astronomy

Feb. 03, 2013 Rise Set
Actual Time 6:57 AM CST 5:24 PM CST
Civil Twilight 6:30 AM CST 5:51 PM CST
Nautical Twilight 5:59 AM CST 6:22 PM CST
Astronomical Twilight 5:28 AM CST 6:53 PM CST
Moon 12:24 AM CST (2/3) 11:02 AM CST (2/3)
Length of Visible Light 11h 21m
Length of Day
10h 26m
Waning Gibbous, 48% of the Moon is Illuminated
Feb 3
Waning Gibbous
Feb 10
New
Feb 17
First Quarter
Feb 25
Full
Mar 4
Last Quarter

Hourly Weather History & Observations

Time (CST) Temp. Windchill Dew Point Humidity Pressure Visibility Wind Dir Wind Speed Gust Speed Precip Events Conditions
12:15 AM 33.8 °F 28.6 °F 28.4 °F 81% 30.10 in 10.0 mi South 5.8 mph - N/A   Scattered Clouds
12:35 AM 35.6 °F 31.7 °F 28.4 °F 75% 30.09 in 10.0 mi SSW 4.6 mph - N/A   Scattered Clouds
12:55 AM 35.6 °F 32.8 °F 30.2 °F 81% 30.08 in 10.0 mi South 3.5 mph - N/A   Overcast
1:15 AM 35.6 °F 32.8 °F 30.2 °F 81% 30.07 in 10.0 mi South 3.5 mph - N/A   Overcast
1:35 AM 37.4 °F - 30.2 °F 75% 30.07 in 10.0 mi Calm Calm - N/A   Overcast
2:15 AM 35.6 °F - 30.2 °F 81% 30.05 in 10.0 mi Calm Calm - N/A   Overcast
2:35 AM 35.6 °F - 30.2 °F 81% 30.04 in 10.0 mi Calm Calm - N/A   Overcast
2:55 AM 35.6 °F - 30.2 °F 81% 30.04 in 10.0 mi Calm Calm - N/A   Overcast
3:15 AM 33.8 °F 30.8 °F 30.2 °F 87% 30.04 in 10.0 mi SW 3.5 mph - N/A   Mostly Cloudy
3:35 AM 32.0 °F 28.7 °F 28.4 °F 87% 30.03 in 10.0 mi SW 3.5 mph - N/A   Scattered Clouds
3:55 AM 33.8 °F 29.6 °F 30.2 °F 87% 30.04 in 10.0 mi WSW 4.6 mph - N/A   Scattered Clouds
4:15 AM 35.6 °F 30.7 °F 32.0 °F 87% 30.04 in 10.0 mi West 5.8 mph - N/A   Scattered Clouds
4:35 AM 35.6 °F 31.7 °F 32.0 °F 87% 30.04 in 10.0 mi WSW 4.6 mph - N/A   Clear
4:55 AM 35.6 °F 29.9 °F 30.2 °F 81% 30.04 in 10.0 mi WSW 6.9 mph - N/A   Clear
5:15 AM 35.6 °F 30.7 °F 30.2 °F 81% 30.05 in 10.0 mi West 5.8 mph - N/A   Clear
5:35 AM 35.6 °F 30.7 °F 30.2 °F 81% 30.06 in 10.0 mi WSW 5.8 mph - N/A   Clear
5:55 AM 35.6 °F 31.7 °F 30.2 °F 81% 30.07 in 10.0 mi West 4.6 mph - N/A   Clear
6:15 AM 35.6 °F 31.7 °F 30.2 °F 81% 30.07 in 10.0 mi West 4.6 mph - N/A   Clear
6:35 AM 35.6 °F 31.7 °F 30.2 °F 81% 30.08 in 10.0 mi WSW 4.6 mph - N/A   Clear
7:15 AM 35.6 °F 30.7 °F 30.2 °F 81% 30.10 in 10.0 mi West 5.8 mph - N/A   Clear
7:35 AM 35.6 °F 32.8 °F 30.2 °F 81% 30.10 in 10.0 mi West 3.5 mph - N/A   Clear
7:55 AM 37.4 °F 34.9 °F 32.0 °F 81% 30.10 in 10.0 mi West 3.5 mph - N/A   Clear
8:15 AM 39.2 °F 35.0 °F 32.0 °F 75% 30.11 in 10.0 mi West 5.8 mph - N/A   Clear
8:35 AM 41.0 °F 37.1 °F 32.0 °F 70% 30.11 in 10.0 mi West 5.8 mph - N/A   Clear
8:55 AM 42.8 °F 38.6 °F 32.0 °F 66% 30.12 in 10.0 mi West 6.9 mph - N/A   Clear
9:15 AM 42.8 °F 39.3 °F 32.0 °F 66% 30.12 in 10.0 mi West 5.8 mph - N/A   Mostly Cloudy
9:35 AM 44.6 °F 38.8 °F 32.0 °F 61% 30.12 in 10.0 mi NW 11.5 mph - N/A   Mostly Cloudy
9:55 AM 42.8 °F 36.2 °F 30.2 °F 61% 30.13 in 10.0 mi WNW 12.7 mph 19.6 mph N/A   Mostly Cloudy
10:15 AM 44.6 °F 38.8 °F 28.4 °F 53% 30.15 in 10.0 mi NW 11.5 mph 18.4 mph N/A   Mostly Cloudy
10:35 AM 44.6 °F 38.1 °F 28.4 °F 53% 30.16 in 10.0 mi NW 13.8 mph 19.6 mph N/A   Mostly Cloudy
10:55 AM 42.8 °F 36.2 °F 28.4 °F 57% 30.16 in 10.0 mi NW 12.7 mph 18.4 mph N/A   Overcast
11:15 AM 44.6 °F 38.1 °F 28.4 °F 53% 30.17 in 10.0 mi NW 13.8 mph 20.7 mph N/A   Overcast
11:35 AM 44.6 °F 38.1 °F 28.4 °F 53% 30.17 in 10.0 mi NNW 13.8 mph 17.3 mph N/A   Overcast
11:55 AM 44.6 °F 37.8 °F 28.4 °F 53% 30.17 in 10.0 mi WNW 15.0 mph 20.7 mph N/A   Mostly Cloudy
12:15 PM 46.4 °F 41.5 °F 28.4 °F 50% 30.17 in 10.0 mi NW 10.4 mph 19.6 mph N/A   Mostly Cloudy
12:35 PM 46.4 °F 40.4 °F 28.4 °F 50% 30.17 in 10.0 mi NW 13.8 mph 19.6 mph N/A   Mostly Cloudy
12:55 PM 46.4 °F 41.1 °F 28.4 °F 50% 30.17 in 10.0 mi NW 11.5 mph 18.4 mph N/A   Scattered Clouds
1:15 PM 46.4 °F 40.7 °F 26.6 °F 46% 30.17 in 10.0 mi WNW 12.7 mph 21.9 mph N/A   Scattered Clouds
1:35 PM 46.4 °F 40.1 °F 24.8 °F 43% 30.16 in 10.0 mi West 15.0 mph 19.6 mph N/A   Scattered Clouds
1:55 PM 46.4 °F 41.5 °F 23.0 °F 40% 30.16 in 10.0 mi NW 10.4 mph - N/A   Clear
2:15 PM 46.4 °F 42.4 °F 23.0 °F 40% 30.16 in 10.0 mi NW 8.1 mph 17.3 mph N/A   Clear
2:35 PM 46.4 °F 41.9 °F 23.0 °F 40% 30.16 in 10.0 mi NW 9.2 mph - N/A   Clear
2:55 PM 46.4 °F 40.7 °F 24.8 °F 43% 30.17 in 10.0 mi NW 12.7 mph - N/A   Clear
3:15 PM 46.4 °F 41.9 °F 21.2 °F 37% 30.17 in 10.0 mi NNW 9.2 mph - N/A   Clear
3:35 PM 46.4 °F 41.5 °F 21.2 °F 37% 30.17 in 10.0 mi WNW 10.4 mph - N/A   Clear
3:55 PM 44.6 °F 40.7 °F 21.2 °F 39% 30.17 in 10.0 mi NNW 6.9 mph - N/A   Clear
4:15 PM 44.6 °F 40.7 °F 21.2 °F 39% 30.17 in 10.0 mi NW 6.9 mph - N/A   Clear
4:35 PM 44.6 °F 42.2 °F 23.0 °F 43% 30.17 in 10.0 mi NNW 4.6 mph - N/A   Clear
4:55 PM 42.8 °F 41.1 °F 23.0 °F 46% 30.17 in 10.0 mi NNW 3.5 mph - N/A   Clear
5:15 PM 41.0 °F 37.1 °F 23.0 °F 49% 30.17 in 10.0 mi NNE 5.8 mph - N/A   Clear
6:15 PM 37.4 °F 34.9 °F 24.8 °F 60% 30.17 in 10.0 mi NE 3.5 mph - N/A   Clear
6:35 PM 35.6 °F 32.8 °F 24.8 °F 65% 30.17 in 10.0 mi ENE 3.5 mph - N/A   Clear
6:55 PM 35.6 °F 32.8 °F 23.0 °F 60% 30.17 in 10.0 mi ENE 3.5 mph - N/A   Clear
7:15 PM 35.6 °F - 24.8 °F 65% 30.17 in 10.0 mi Calm Calm - N/A   Clear
7:35 PM 35.6 °F 32.8 °F 23.0 °F 60% 30.17 in 10.0 mi East 3.5 mph - N/A   Clear
7:55 PM 32.0 °F - 23.0 °F 69% 30.17 in 10.0 mi Calm Calm - N/A   Clear
8:15 PM 32.0 °F - 23.0 °F 69% 30.17 in 10.0 mi Calm Calm - N/A   Clear
8:35 PM 32.0 °F 28.7 °F 24.8 °F 75% 30.16 in 10.0 mi East 3.5 mph - N/A   Clear
8:55 PM 32.0 °F 28.7 °F 23.0 °F 69% 30.15 in 10.0 mi East 3.5 mph - N/A   Clear
9:15 PM 33.8 °F 28.6 °F 23.0 °F 65% 30.15 in 10.0 mi East 5.8 mph - N/A   Clear
9:35 PM 33.8 °F 29.6 °F 23.0 °F 65% 30.15 in 10.0 mi ESE 4.6 mph - N/A   Clear
9:55 PM 32.0 °F 26.4 °F 23.0 °F 69% 30.13 in 10.0 mi East 5.8 mph - N/A   Clear
10:15 PM 30.2 °F - 23.0 °F 75% 30.13 in 10.0 mi Calm Calm - N/A   Clear
10:35 PM 32.0 °F 27.5 °F 23.0 °F 69% 30.14 in 10.0 mi SE 4.6 mph - N/A   Clear
10:55 PM 32.0 °F 27.5 °F 23.0 °F 69% 30.13 in 10.0 mi ESE 4.6 mph - N/A   Clear
11:15 PM 32.0 °F 26.4 °F 23.0 °F 69% 30.11 in 10.0 mi SE 5.8 mph - N/A   Clear
11:35 PM 32.0 °F 27.5 °F 24.8 °F 75% 30.10 in 10.0 mi SE 4.6 mph - N/A   Clear
11:55 PM 33.8 °F - 24.8 °F 70% 30.10 in 10.0 mi Calm Calm - N/A   Clear